Location: 32930 Toén, Ourense, España
(42.3348°N, 7.8903°W)
Time: 10:18:04
(UTC+02:00)

ISS - Pass Details

Date: 31 May 2020
Orbit: 417 x 421 km, 51.6° (Epoch: 07 July)

Event Time Altitude Azimuth Distance (km) Brightness Sun altitude
Rises 00:28:42 0° 298° (WNW) 2,378 1.0 -20.0°
Reaches altitude 10° 00:30:55 10° 288° (WNW) 1,510 -0.3 -20.2°
Enters shadow 00:33:29 31° 244° (WSW) 762 -2.5 -20.4°
